TimeEDT,TemperatureF,Dew PointF,Humidity,Sea Level PressureIn,VisibilityMPH,Wind Direction,Wind SpeedMPH,Gust SpeedMPH,PrecipitationIn,Events,Conditions,WindDirDegrees,DateUTC
12:55 AM,76.8,75.0,94,29.99,10.0,SSW,3.5,-,N/A,,Mostly Cloudy,210,2012-10-03 04:55:00
1:55 AM,76.1,73.0,90,29.99,10.0,SSW,4.6,-,N/A,,Partly Cloudy,210,2012-10-03 05:55:00
2:32 AM,75.2,71.6,89,30.00,10.0,SW,4.6,-,N/A,,Light Drizzle,230,2012-10-03 06:32:00
2:55 AM,74.7,70.5,87,30.01,10.0,WSW,5.8,-,0.00,,Light Drizzle,240,2012-10-03 06:55:00
2:59 AM,75.2,69.8,83,30.01,10.0,WSW,4.6,-,N/A,,Scattered Clouds,240,2012-10-03 06:59:00
3:08 AM,73.4,69.8,88,30.01,10.0,SW,3.5,-,N/A,,Light Drizzle,220,2012-10-03 07:08:00
3:11 AM,73.4,69.8,88,30.01,10.0,Calm,Calm,-,N/A,,Mostly Cloudy,0,2012-10-03 07:11:00
3:16 AM,73.4,69.8,88,30.01,10.0,SSW,3.5,-,N/A,,Light Drizzle,210,2012-10-03 07:16:00
3:38 AM,73.4,69.8,88,30.01,10.0,SW,3.5,-,N/A,,Partly Cloudy,230,2012-10-03 07:38:00
3:55 AM,73.4,69.8,88,30.01,10.0,SW,3.5,-,0.00,,Partly Cloudy,230,2012-10-03 07:55:00
4:55 AM,72.9,68.7,87,30.01,10.0,WSW,4.6,-,N/A,,Scattered Clouds,250,2012-10-03 08:55:00
5:55 AM,72.1,68.7,89,30.04,10.0,SSW,3.5,-,N/A,,Scattered Clouds,210,2012-10-03 09:55:00
6:55 AM,72.1,68.7,89,30.05,10.0,Calm,Calm,-,N/A,,Scattered Clouds,0,2012-10-03 10:55:00
7:55 AM,71.6,69.1,92,30.07,10.0,West,3.5,-,N/A,,Mostly Cloudy,260,2012-10-03 11:55:00
8:55 AM,73.2,68.9,86,30.09,10.0,SW,4.6,-,N/A,,Mostly Cloudy,230,2012-10-03 12:55:00
9:55 AM,74.3,68.2,81,30.11,10.0,Calm,Calm,-,N/A,,Scattered Clouds,0,2012-10-03 13:55:00
10:55 AM,75.9,69.6,81,30.12,10.0,Variable,3.5,-,N/A,,Mostly Cloudy,0,2012-10-03 14:55:00
11:55 AM,78.6,70.5,76,30.12,10.0,Calm,Calm,-,N/A,,Clear,0,2012-10-03 15:55:00
12:55 PM,80.8,70.2,70,30.12,10.0,SSW,5.8,-,N/A,,Partly Cloudy,200,2012-10-03 16:55:00
1:55 PM,80.8,68.5,66,30.11,10.0,WSW,3.5,-,N/A,,Partly Cloudy,240,2012-10-03 17:55:00
2:34 PM,80.6,68.0,65,30.10,10.0,WSW,4.6,-,N/A,Rain,Light Rain,250,2012-10-03 18:34:00
2:43 PM,80.6,68.0,65,30.10,10.0,Calm,Calm,-,N/A,,Partly Cloudy,0,2012-10-03 18:43:00
2:55 PM,81.1,68.7,66,30.09,10.0,SSW,3.5,-,0.00,,Partly Cloudy,210,2012-10-03 18:55:00
3:55 PM,81.9,68.2,63,30.09,10.0,Calm,Calm,-,N/A,,Scattered Clouds,0,2012-10-03 19:55:00
4:55 PM,82.0,68.0,62,30.10,10.0,WNW,4.6,-,N/A,,Scattered Clouds,300,2012-10-03 20:55:00
5:55 PM,80.8,66.9,63,30.11,10.0,Calm,Calm,-,N/A,,Mostly Cloudy,0,2012-10-03 21:55:00
6:48 PM,78.8,71.6,78,30.12,10.0,Calm,Calm,-,N/A,Rain,Light Rain,0,2012-10-03 22:48:00
6:55 PM,77.0,71.2,82,30.12,10.0,Calm,Calm,-,0.00,Rain,Light Rain,0,2012-10-03 22:55:00
7:05 PM,75.2,71.6,89,30.13,10.0,Calm,Calm,-,N/A,,Mostly Cloudy,0,2012-10-03 23:05:00
7:10 PM,77.0,71.6,83,30.13,10.0,Calm,Calm,-,N/A,Rain,Light Rain,0,2012-10-03 23:10:00
7:34 PM,77.0,71.6,83,30.13,10.0,Calm,Calm,-,N/A,,Mostly Cloudy,0,2012-10-03 23:34:00
7:55 PM,75.7,72.3,89,30.14,10.0,SSE,3.5,-,0.00,,Overcast,160,2012-10-03 23:55:00
8:19 PM,75.2,71.6,89,30.15,10.0,South,3.5,-,N/A,Rain,Light Rain,170,2012-10-04 00:19:00
8:55 PM,75.2,72.5,91,30.16,10.0,Calm,Calm,-,0.01,Rain,Light Rain,0,2012-10-04 00:55:00
8:59 PM,75.2,73.4,94,30.17,10.0,Calm,Calm,-,N/A,,Clear,0,2012-10-04 00:59:00
9:24 PM,75.2,71.6,89,30.17,10.0,WSW,3.5,-,N/A,Rain,Light Rain,250,2012-10-04 01:24:00
9:50 PM,75.2,73.4,94,30.19,5.0,WSW,6.9,-,N/A,Rain,Light Rain,250,2012-10-04 01:50:00
9:55 PM,74.3,72.9,95,30.19,3.0,West,6.9,-,0.05,Rain,Light Rain,280,2012-10-04 01:55:00
10:02 PM,73.4,71.6,94,30.19,6.0,West,5.8,-,N/A,Rain,Light Rain,270,2012-10-04 02:02:00
10:04 PM,73.4,71.6,94,30.19,8.0,West,5.8,-,N/A,Rain,Light Rain,270,2012-10-04 02:04:00
10:12 PM,73.4,71.6,94,30.19,10.0,WNW,4.6,-,N/A,,Overcast,290,2012-10-04 02:12:00
10:15 PM,73.4,71.6,94,30.19,10.0,West,4.6,-,N/A,,Overcast,280,2012-10-04 02:15:00
10:49 PM,69.8,69.8,100,30.19,10.0,West,6.9,-,N/A,,Overcast,270,2012-10-04 02:49:00
10:55 PM,70.3,68.9,95,30.21,10.0,WNW,5.8,-,0.00,,Light Drizzle,300,2012-10-04 02:55:00
10:56 PM,69.8,68.0,94,30.20,10.0,Variable,4.6,-,N/A,,Light Drizzle,0,2012-10-04 02:56:00
11:01 PM,69.8,68.0,94,30.20,10.0,Calm,Calm,-,N/A,,Light Drizzle,0,2012-10-04 03:01:00
11:06 PM,69.8,69.8,100,30.20,10.0,Calm,Calm,-,N/A,,Overcast,0,2012-10-04 03:06:00
11:28 PM,69.8,68.0,94,30.18,10.0,NE,3.5,-,N/A,,Overcast,40,2012-10-04 03:28:00
11:42 PM,69.8,68.0,94,30.18,10.0,Calm,Calm,-,N/A,,Mostly Cloudy,0,2012-10-04 03:42:00
11:55 PM,69.3,68.2,96,30.17,10.0,Calm,Calm,-,0.00,,Mostly Cloudy,0,2012-10-04 03:55:00